Presure
130 152 133 134 130 149 116 101 127 159 158 144 144 133 149 125 153 130 148 162 155 160 130 133 167 156 169 181 151 172 162 163 188 235 192 225 242 236 237 238 226 226 233 237 231 219 267 242 255
135 77 119 146 139 142 121 153 155 145 135 120 135 138 141 148 153 152 138 125 138 160 156 158 161 173 167 161 193 187 192 241 243 252 229 226 232 247 246 271 254 252 234 249 260 249 256 236 247
127 145 121 99 132 161 155 146 135 154 152 147 148 166 161 146 152 165 158 179 178 161 180 185 191 164 184 195 225 226 231 282 245 262 255 254 256 250 240 240 255 252 228 235 234 258 255 261 234
120 119 139 135 137 120 133 139 165 161 134 123 132 154 156 126 167 171 156 178 188 189 174 170 207 222 226 234 266 267 249 257 263 257 251 240 240 243 239 252 228 226 236 257 240 240 253 234 245
141 143 137 138 175 141 138 139 149 148 173 152 158 156 157 154 149 151 170 202 175 189 221 250 263 293 259 259 252 274 259 243 244 248 262 284 262 257 247 271 255 242 270 250 257 252 230 241 221
127 128 138 154 120 169 160 149 140 140 157 165 148 160 167 170 159 176 192 189 246 305 298 278 268 238 257 261 259 257 246 267 266 268 266 257 267 260 266 262 264 263 254 251 260 239 228 236 218
149 119 129 155 147 164 165 162 160 160 164 173 149 169 167 179 166 206 189 328 320 309 291 281 273 264 263 277 292 269 273 276 256 263 259 253 252 250 248 247 250 253 252 246 248 246 230 231 217
133 117 168 172 167 166 162 160 159 160 163 154 156 178 197 213 189 287 273 269 251 253 284 276 325 265 243 252 256 253 242 259 254 264 263 255 251 246 242 239 239 243 238 240 238 230 247 244 219
125 161 149 172 168 167 176 172 166 158 168 183 224 262 303 279 260 256 263 320 255 311 256 279 272 265 264 249 274 293 287 291 296 284 283 281 269 250 229 232 223 222 233 238 234 234 220 219 217
166 172 161 153 157 157 164 175 187 191 239 313 305 304 273 218 267 270 268 261 236 243 230 238 235 252 253 243 237 229 227 221 252 224 225 232 231 242 237 249 253 256 221 226 229 231 228 222 219
142 174 168 160 173 183 188 181 297 295 298 275 212 256 266 254 255 211 251 229 237 238 230 243 240 212 221 210 235 198 225 232 222 227 229 215 234 230 233 228 235 237 235 250 247 221 225 224 225
177 185 177 179 196 296 298 285 245 196 259 252 209 253 241 245 223 241 239 241 229 221 213 169 209 211 166 212 213 206 211 205 207 202 202 205 207 205 209 214 226 218 222 236 234 241 247 227 213
197 184 213 201 235 231 232 239 233 243 229 251 244 231 236 238 231 226 219 214 213 208 209 214 199 207 200 197 201 193 192 192 189 193 177 201 205 200 205 201 195 193 205 185 217 221 229 227 234
192 242 200 217 219 255 258 221 233 226 247 230 231 219 225 217 214 214 199 201 205 207 212 195 197 197 197 190 192 187 192 195 196 192 194 188 192 193 186 200 181 203 215 209 199 200 204 216 216
226 251 185 248 233 233 226 235 234 240 230 203 229 217 219 205 217 201 203 204 209 211 200 211 212 193 197 201 185 199 198 203 205 201 203 206 203 204 202 194 206 143 194 196 200 212 215 204 204
243 240 215 224 223 198 217 214 210 212 216 211 213 206 204 201 196 202 205 207 203 198 194 198 194 193 193 194 192 169 188 195 196 195 195 196 207 200 191 192 197 204 204 205 201 201 213 211 205
239 227 226 211 222 213 190 209 209 201 211 206 174 199 201 179 188 196 190 189 186 181 187 182 179 182 184 182 180 181 178 181 189 184 184 186 188 192 195 194 192 190 194 196 199 200 196 204 207
209 204 223 215 201 209 203 200 203 201 191 191 190 191 181 191 189 197 188 188 184 182 175 183 193 170 174 185 184 179 167 187 185 183 184 184 185 185 187 184 193 193 194 195 193 192 197 201 208
219 216 197 212 200 203 202 199 196 198 197 193 191 192 190 188 172 183 165 171 184 184 167 179 172 174 182 176 172 173 169 187 187 184 180 178 180 183 182 184 186 191 184 187 191 195 197 200 207
209 215 213 207 207 201 203 197 197 186 189 188 177 176 193 180 166 144 168 157 176 174 175 180 181 182 174 178 172 181 177 168 175 173 170 166 174 173 172 174 182 188 195 194 191 185 188 190 207
207 205 217 211 202 202 198 203 197 190 203 199 198 201 187 178 164 168 173 180 166 170 159 186 188 181 183 185 189 182 191 176 186 189 187 193 185 179 188 172 175 179 184 187 193 200 199 193 199
206 207 215 209 203 203 197 203 198 199 190 176 200 170 188 196 177 120 146 152 183 161 159 136 171 185 185 174 173 174 141 189 186 132 186 185 183 182 193 197 194 197 206 195 194 198 191 201 197
205 207 216 205 198 202 189 183 169 166 195 199 160 168 176 143 147 142 124 168 162 125 150 125 182 127 146 186 127 164 191 144 185 170 193 192 194 195 194 202 206 205 206 202 203 200 203 197 212
193 205 198 204 210 206 198 189 181 186 168 157 167 144 167 154 151 130 117 173 158 155 125 175 170 174 175 181 184 179 180 190 187 188 194 201 203 200 203 205 210 213 218 227 233 237 246 243 250
192 202 200 197 198 200 194 197 197 114 189 194 136 123 141 167 147 126 174 156 167 169 168 120 128 138 131 119 174 195 194 188 195 199 201 216 232 232 230 225 228 236 248 253 255 248 254 265 264
184 194 180 186 184 187 188 191 195 188 178 196 197 164 187 193 136 159 159 173 181 173 184 182 170 182 135 182 180 182 195 206 203 221 224 228 229 230 234 257 264 261 275 270 280 290 290 289 305
183 181 182 175 180 185 184 192 199 193 118 166 176 168 180 180 133 172 166 173 173 143 122 173 187 181 191 200 191 204 204 205 219 226 228 235 238 270 279 290 268 272 347 344 334 331 328 334 333
186 183 185 185 180 134 188 122 193 178 123 176 178 167 179 177 137 136 174 164 169 168 154 144 129 192 193 200 204 190 220 224 223 237 237 242 243 288 280 282 302 283 313 305 295 295 309 284 280
187 182 187 187 188 197 201 185 70 126 183 177 179 181 182 175 172 161 160 170 174 146 172 200 196 195 202 207 211 224 215 226 222 225 251 288 275 281 295 284 279 280 280 295 300 293 285 283 288
177 179 188 193 183 188 184 179 185 193 187 182 183 182 138 178 173 145 195 187 190 167 203 163 207 209 214 213 220 217 228 243 217 272 286 287 300 301 277 272 267 282 284 261 256 268 268 270 266
Wind_Speed
49 51 46 53 55 67 43 41 67 84 84 76 80 78 86 81 92 85 91 108 95 102 88 92 121 108 123 124 104 122 113 114 126 119 113 116 99 102 96 93 94 91 89 86 81 86 60 70 62
44 17 40 57 60 68 59 74 79 71 77 76 82 83 91 94 92 95 90 79 91 109 102 104 112 125 114 109 134 128 127 114 110 97 111 108 102 94 93 68 73 65 75 67 56 61 59 64 60
45 53 55 39 61 88 79 70 69 87 86 84 87 108 106 93 99 118 111 125 123 111 127 130 134 108 131 138 121 116 112 70 97 79 81 80 70 74 73 74 70 67 70 69 65 53 54 51 59
51 57 59 61 62 67 69 70 99 96 77 75 84 97 103 80 123 126 105 130 135 127 119 118 136 125 118 111 70 62 80 65 66 60 63 70 72 70 72 63 52 58 63 53 52 53 49 51 51
58 62 61 64 91 69 71 77 82 89 115 94 100 104 111 107 103 103 126 142 120 124 127 101 84 45 69 58 64 54 59 63 62 62 61 43 54 54 60 46 49 55 45 49 47 47 50 51 48
55 61 72 74 64 101 92 81 89 85 97 119 91 111 126 128 110 131 138 128 113 54 48 54 50 78 54 50 53 53 57 50 46 39 37 43 34 40 36 37 37 40 45 45 42 45 46 49 50
62 62 70 79 74 102 105 108 106 109 115 120 97 122 117 131 111 135 118 32 37 33 33 34 36 40 45 45 35 39 37 33 40 33 32 32 32 32 32 31 31 34 38 41 42 43 46 51 52
60 64 104 109 108 107 104 98 100 101 107 96 99 133 134 132 116 39 41 42 48 40 27 28 19 30 33 29 26 26 32 25 26 24 25 26 26 27 29 29 30 32 33 34 37 42 43 48 51
61 83 76 107 107 103 112 102 103 97 105 125 118 68 21 42 48 45 34 7 25 8 24 14 11 8 7 12 6 13 13 14 11 12 14 16 19 23 26 27 30 31 29 31 34 36 42 45 48
81 91 82 75 92 90 97 111 131 125 100 8 7 14 15 67 11 4 8 9 22 7 21 7 9 12 8 7 12 14 14 19 21 12 11 12 13 24 19 22 21 23 29 31 34 39 42 45 48
70 101 85 77 93 118 128 114 5 7 19 10 67 14 6 5 5 54 10 24 4 8 11 16 11 27 21 31 15 35 14 16 16 18 20 20 24 24 25 21 25 22 20 20 26 35 38 40 45
93 106 101 112 127 7 2 2 43 85 12 17 55 5 10 5 33 8 9 12 9 12 17 54 19 18 54 17 18 21 16 22 17 24 25 20 19 21 19 21 24 21 25 22 19 20 24 37 41
73 114 100 122 39 62 50 39 46 22 28 5 3 19 5 8 6 8 12 18 17 21 17 14 26 20 28 29 21 29 32 34 35 32 45 25 18 26 20 24 32 35 26 44 21 22 23 28 33
117 43 70 62 56 12 5 41 20 25 6 13 2 21 4 13 14 13 26 23 20 17 14 25 26 24 25 31 30 31 30 31 31 33 33 37 37 37 41 28 44 28 22 28 36 36 31 23 30
60 15 77 6 24 10 21 5 6 3 7 30 3 12 7 16 4 16 17 18 16 16 21 20 19 26 22 23 32 25 27 26 26 29 31 27 31 29 30 38 28 49 42 41 39 32 35 44 45
20 17 44 28 20 44 18 17 17 15 13 16 13 13 16 13 16 12 10 12 17 20 22 22 20 22 24 28 29 37 30 33 34 36 37 38 35 35 39 39 38 39 40 42 44 43 41 45 50
7 15 13 28 9 15 42 14 13 19 14 15 33 15 11 29 19 15 20 19 21 25 26 29 35 28 30 33 34 34 35 38 39 38 37 39 38 39 41 43 45 48 49 50 51 51 51 50 52
35 41 13 14 38 13 17 20 16 19 27 24 25 22 26 23 26 20 24 25 27 29 32 34 34 40 40 39 40 39 37 45 46 46 47 47 47 47 48 49 51 52 54 57 58 60 59 59 60
19 17 36 14 26 18 20 19 24 20 22 25 24 25 25 26 29 28 37 34 35 37 35 37 35 38 40 45 47 47 46 50 51 51 52 53 55 56 55 57 58 59 60 63 65 66 66 68 70
24 14 16 17 18 21 21 21 22 27 25 28 32 34 27 29 34 39 36 43 35 37 39 40 41 40 42 44 51 52 53 52 51 50 52 52 56 58 58 60 62 63 65 68 70 70 69 70 75
19 19 18 18 22 26 23 23 23 26 24 25 30 31 28 30 36 38 37 42 39 43 40 51 50 46 49 51 54 55 59 57 64 63 63 68 65 67 71 63 65 68 72 73 74 78 81 81 82
17 17 18 22 20 27 23 25 24 25 27 19 29 24 26 34 33 33 36 45 53 47 47 46 59 70 70 55 57 59 49 77 75 54 77 77 74 78 83 85 83 83 84 80 79 80 80 88 88
15 16 20 18 21 22 23 19 35 35 26 29 33 31 32 49 40 40 31 48 48 36 43 37 69 44 51 74 52 61 81 55 83 75 88 89 91 90 89 92 93 91 91 88 87 84 86 86 91
18 11 15 15 18 22 25 24 28 24 26 48 28 56 39 46 39 40 40 55 52 54 35 68 70 76 78 80 81 78 80 87 86 87 91 95 94 94 95 95 96 98 101 103 104 104 105 103 104
21 15 14 15 19 23 27 27 30 16 33 28 34 37 31 47 43 38 52 51 56 62 64 42 46 48 47 46 74 91 93 91 92 95 93 96 102 103 104 106 107 110 112 111 108 103 103 103 101
29 23 25 22 27 33 35 38 36 33 37 34 35 55 44 45 44 50 52 60 67 66 74 75 68 80 61 82 84 87 96 99 97 111 110 110 108 108 109 113 112 109 108 109 106 102 101 102 99
27 28 28 28 28 33 41 51 53 41 37 33 42 37 45 48 50 61 57 65 67 51 48 77 85 84 93 98 95 104 107 110 117 114 114 114 114 112 108 102 104 102 87 86 85 85 86 89 92
30 28 31 33 34 32 39 34 56 39 40 47 47 46 58 58 51 52 70 62 67 70 67 63 58 96 99 105 109 89 115 116 117 119 119 109 103 102 103 100 90 95 83 83 84 84 78 79 80
33 33 35 35 37 38 29 44 17 47 51 55 59 63 65 64 63 58 70 72 83 63 83 100 102 101 109 112 113 115 113 116 115 119 113 106 107 104 92 91 91 90 88 83 81 80 81 81 80
38 39 36 34 36 40 38 45 44 46 51 56 60 63 50 71 74 56 86 87 96 80 105 57 110 112 114 116 118 117 119 118 110 110 106 101 94 87 89 90 91 90 85 84 82 80 79 78 77
Wind_Direction
265 278 272 277 275 287 287 290 274 294 291 281 281 277 289 287 288 284 281 295 287 288 286 284 289 285 288 287 283 287 284 285 288 289 284 289 288 288 284 284 283 282 280 276 274 276 272 273 273
276 297 282 285 281 280 286 290 289 282 287 283 284 287 289 288 284 285 282 289 280 287 283 281 285 286 284 284 289 287 288 288 286 284 284 284 284 284 283 277 277 275 275 275 270 271 267 266 268
281 279 272 277 286 287 290 286 281 289 288 284 285 296 297 282 289 295 291 293 287 286 287 288 288 286 289 289 290 287 287 281 285 283 284 285 284 283 283 281 279 275 273 270 272 260 260 258 263
271 270 274 272 276 280 281 283 291 292 279 288 282 291 293 297 297 295 285 293 292 290 288 289 292 292 289 286 285 283 284 281 286 282 283 283 281 279 281 280 275 274 272 266 269 266 253 263 252
274 275 275 278 288 280 281 279 284 289 290 291 291 291 293 289 287 288 291 296 291 290 292 289 287 287 286 284 283 282 284 283 282 282 282 277 274 275 277 274 272 270 267 265 262 258 261 256 253
275 275 283 286 283 294 285 284 296 287 287 289 286 290 290 288 286 291 294 291 290 278 283 286 286 285 282 283 283 284 283 280 280 280 281 278 275 274 276 276 274 270 266 262 258 255 258 247 250
281 288 285 286 281 291 290 289 287 288 290 292 287 287 286 289 287 292 288 282 285 289 287 285 288 286 288 290 284 284 277 276 280 277 276 277 279 280 278 276 275 273 266 265 259 255 253 249 252
275 279 285 283 286 287 288 287 286 286 285 283 283 287 289 293 288 292 293 291 288 287 290 303 285 296 295 295 292 288 288 285 287 287 285 287 283 282 282 280 282 278 274 270 265 261 261 254 254
274 278 280 281 286 286 288 288 288 283 285 290 291 290 288 292 289 290 288 305 290 13 291 43 29 351 329 294 346 50 38 27 1 349 336 320 303 291 289 287 284 282 276 272 266 263 257 255 252
282 283 283 280 285 285 287 290 291 291 295 329 352 67 318 289 300 349 65 77 303 299 311 347 1 41 25 296 286 273 282 296 26 300 317 337 330 356 337 352 339 314 281 280 273 264 258 254 252
277 287 284 280 288 291 291 292 295 74 94 299 286 299 74 86 71 295 70 299 350 2 353 46 27 285 296 286 32 295 4 13 331 5 5 312 0 4 359 341 351 348 335 324 293 269 268 264 262
284 286 285 285 286 278 131 299 283 286 286 292 293 98 292 29 295 85 88 77 356 320 307 294 311 323 290 339 348 323 344 325 339 312 315 332 327 311 334 341 351 323 321 339 333 310 297 265 259
280 286 285 283 281 285 287 287 287 290 292 90 46 298 46 60 34 357 324 304 298 305 328 340 314 326 310 314 326 317 312 311 310 315 297 315 318 309 313 300 289 286 302 275 326 320 313 285 282
285 277 286 285 284 288 306 286 295 296 106 291 285 295 317 309 313 334 306 316 325 326 323 317 321 321 325 320 322 316 314 312 311 308 303 306 303 301 295 293 291 295 294 287 279 272 267 279 274
280 280 282 289 278 294 289 303 283 171 290 298 306 308 319 316 11 313 318 319 320 324 318 330 336 307 318 312 315 314 313 311 306 302 302 297 296 290 286 293 284 278 285 284 280 280 273 270 264
264 265 280 267 269 285 287 294 291 302 295 299 303 305 310 301 296 294 310 340 340 338 334 333 326 323 320 316 312 301 310 310 308 307 307 305 302 302 298 297 297 295 287 284 279 277 283 277 271
253 266 274 283 288 273 288 284 294 284 286 289 298 292 294 292 295 299 300 305 313 311 324 311 308 312 316 316 313 312 309 308 310 305 301 300 299 299 297 295 294 293 291 288 287 284 277 278 276
278 279 256 260 271 273 272 273 274 276 277 285 290 289 282 285 296 316 309 315 308 311 311 327 328 304 312 318 314 306 293 309 306 305 305 303 303 304 301 299 295 293 290 287 286 285 284 283 281
246 256 278 268 281 271 268 274 283 281 289 290 289 291 296 303 297 314 296 309 326 322 304 317 311 314 316 310 306 306 305 305 301 301 302 303 302 301 299 298 297 294 293 291 288 288 287 287 286
266 278 276 277 271 264 263 276 277 292 289 289 301 301 302 309 305 306 300 297 314 312 312 311 310 310 305 302 302 298 296 298 296 294 294 297 295 296 297 298 295 292 288 288 288 287 286 284 285
275 282 281 267 273 276 282 281 283 284 273 286 296 300 302 297 298 297 306 312 301 312 302 315 313 308 305 304 301 298 300 301 299 297 299 301 296 297 295 294 295 295 294 292 291 290 291 290 289
283 291 283 277 277 272 289 289 286 289 304 302 323 295 314 310 286 308 305 281 315 305 283 296 316 317 313 314 316 310 288 309 306 303 308 306 305 302 301 297 295 295 294 292 291 290 288 287 287
293 300 295 283 280 285 285 277 273 288 306 301 259 288 315 291 284 306 315 315 310 308 297 300 313 305 297 307 308 302 306 292 309 303 305 303 302 300 299 298 298 296 294 291 290 288 286 282 285
283 292 302 311 309 296 287 286 284 294 295 289 295 292 291 288 299 291 302 306 310 310 307 308 311 310 310 305 304 306 306 305 305 304 302 298 298 299 298 297 296 295 295 294 295 294 294 290 289
285 293 314 315 314 316 311 305 298 293 297 290 293 300 312 282 305 303 297 303 303 304 307 316 312 294 312 282 306 304 302 302 299 299 300 300 298 298 298 299 299 298 297 296 295 294 291 289 289
287 299 298 317 323 324 316 310 304 296 292 305 291 283 285 291 310 297 294 302 301 303 301 302 303 305 310 304 304 304 302 304 307 307 306 305 304 303 302 298 296 296 295 294 292 290 288 288 285
290 297 303 297 313 321 313 309 304 305 305 284 282 290 298 290 306 299 302 302 305 307 314 308 303 305 306 306 308 309 310 310 307 306 306 305 305 303 301 300 300 300 295 293 292 291 289 285 283
288 295 306 314 312 318 306 317 300 300 308 299 300 286 302 300 296 300 307 303 307 305 302 310 313 307 307 309 311 307 308 307 308 306 305 306 306 302 302 301 299 299 297 295 294 293 293 294 293
297 303 305 305 301 297 304 290 339 303 305 302 302 302 303 304 303 297 306 305 302 304 305 305 308 311 311 308 308 307 307 309 309 309 308 306 304 301 300 300 300 300 298 295 294 293 292 293 292
295 307 302 301 303 303 303 295 295 300 299 299 299 298 307 299 298 299 298 302 305 311 309 297 309 308 308 308 308 308 309 308 307 308 307 304 303 301 300 300 301 299 297 299 300 298 296 294 293